Torna al catalogo

STARLINK-34831

AttivoComunicazioniVLEO
NORAD 65345·PAYLOAD·🇺🇸 United States

Lanciato Aug 27, 2025 da Cape Canaveral Space Force Station

Loading…

Prossimi Passaggi (prossime 24 ore)

TLE

AggiornatoSource: CelesTrak SupGP

Epoca: Sep 15, 2026, 03:50 UTC

1 65345C 25189Y   26258.16020833  .00008970  00000+0  28852-3 0  2583
2 65345  53.1593  45.3544 0001111  87.0703 289.6000 15.31690410    11

Traccia STARLINK-34831 in tempo reale con AllMySat

Download on the App Store